| time (UTC) | temp F | wind direction | speed MPH | gust MPH | rain 1hr in | rain 24hr in | rain mn in | humidity % | barometer mb |
| 20260509152357 | 65 | 220 | 4.0 | 6.0 | 0.00 | 0.00 | 0.00 | 52 | 1003.5 |
| 20260509152120 | 65 | 288 | 5.0 | 6.0 | 0.00 | 0.00 | 0.00 | 51 | 1003.5 |
| 20260509150853 | 64 | 267 | 3.0 | 9.0 | 0.00 | 0.00 | 0.00 | 58 | 1003.5 |
| 20260509150353 | 64 | 200 | 2.0 | 9.0 | 0.00 | 0.00 | 0.00 | 57 | 1003.5 |
| 20260509145854 | 64 | 209 | 4.0 | 7.0 | 0.00 | 0.00 | 0.00 | 58 | 1003.5 |
| 20260509145352 | 64 | 276 | 2.0 | 7.0 | 0.00 | 0.00 | 0.00 | 56 | 1003.5 |
| 20260509144351 | 62 | 209 | 5.0 | 8.0 | 0.00 | 0.00 | 0.00 | 62 | 1003.5 |
| 20260509143849 | 62 | 238 | 4.0 | 7.0 | 0.00 | 0.00 | 0.00 | 64 | 1003.5 |
| 20260509143350 | 62 | 291 | 3.0 | 9.0 | 0.00 | 0.00 | 0.00 | 66 | 1003.5 |
| 20260509142849 | 61 | 205 | 2.0 | 9.0 | 0.00 | 0.00 | 0.00 | 67 | 1003.5 |
| 20260509142348 | 61 | 252 | 6.0 | 8.0 | 0.00 | 0.00 | 0.00 | 68 | 1003.5 |
| 20260509141848 | 60 | 216 | 4.0 | 5.0 | 0.00 | 0.00 | 0.00 | 71 | 1003.5 |
| 20260509141346 | 60 | 218 | 4.0 | 12.0 | 0.00 | 0.00 | 0.00 | 71 | 1003.5 |
| 20260509141106 | 60 | 241 | 1.0 | 12.0 | 0.00 | 0.00 | 0.00 | 72 | 1003.5 |
| 20260509140348 | 59 | 248 | 0.0 | 8.0 | 0.00 | 0.00 | 0.00 | 73 | 1003.5 |
| 20260509135845 | 59 | 229 | 5.0 | 8.0 | 0.00 | 0.00 | 0.00 | 74 | 1003.5 |
| 20260509135344 | 59 | 284 | 3.0 | 10.0 | 0.00 | 0.00 | 0.00 | 75 | 1003.5 |
| 20260509134847 | 59 | 235 | 7.0 | 10.0 | 0.00 | 0.00 | 0.00 | 77 | 1003.2 |
| 20260509134343 | 58 | 205 | 2.0 | 9.0 | 0.00 | 0.00 | 0.00 | 78 | 1003.5 |
| 20260509133843 | 58 | 238 | 4.0 | 8.0 | 0.00 | 0.00 | 0.00 | 78 | 1003.2 |
| 20260509133344 | 58 | 236 | 3.0 | 8.0 | 0.00 | 0.00 | 0.00 | 78 | 1003.2 |
| 20260509133320 | 57 | 342 | 0.0 | 8.0 | 0.00 | 0.00 | 0.00 | 79 | 1003.2 |
| 20260509132613 | 57 | 125 | 2.0 | 8.0 | 0.00 | 0.00 | 0.00 | 81 | 1003.2 |
| 20260509132109 | 56 | 151 | 2.0 | 5.0 | 0.00 | 0.00 | 0.00 | 83 | 1003.2 |
| 20260509131341 | 56 | 224 | 2.0 | 5.0 | 0.00 | 0.00 | 0.00 | 84 | 1003.2 |
| 20260509130842 | 55 | 218 | 3.0 | 5.0 | 0.00 | 0.00 | 0.00 | 86 | 1003.2 |
| 20260509130352 | 55 | 255 | 3.0 | 5.0 | 0.00 | 0.00 | 0.00 | 88 | 1003.2 |
| 20260509125840 | 54 | 274 | 0.0 | 5.0 | 0.00 | 0.00 | 0.00 | 89 | 1003.2 |
| 20260509125338 | 54 | 227 | 3.0 | 5.0 | 0.00 | 0.00 | 0.00 | 90 | 1003.5 |
| 20260509125316 | 53 | 165 | 4.0 | 8.0 | 0.00 | 0.00 | 0.00 | 91 | 1003.5 |
| 20260509124337 | 53 | 180 | 2.0 | 8.0 | 0.00 | 0.00 | 0.00 | 92 | 1003.5 |
| 20260509123839 | 53 | 207 | 1.0 | 6.0 | 0.00 | 0.00 | 0.00 | 93 | 1003.5 |
| 20260509123338 | 52 | 221 | 4.0 | 6.0 | 0.00 | 0.00 | 0.00 | 94 | 1003.2 |
| 20260509122837 | 52 | 196 | 2.0 | 5.0 | 0.00 | 0.00 | 0.00 | 95 | 1003.2 |
| 20260509122335 | 51 | 245 | 5.0 | 5.0 | 0.00 | 0.00 | 0.00 | 95 | 1003.2 |
| 20260509121835 | 51 | 199 | 2.0 | 5.0 | 0.00 | 0.00 | 0.00 | 96 | 1003.5 |
| 20260509121820 | 51 | 244 | 3.0 | 6.0 | 0.00 | 0.00 | 0.00 | 96 | 1003.5 |
| 20260509120835 | 51 | 238 | 0.0 | 6.0 | 0.00 | 0.00 | 0.00 | 96 | 1003.2 |
| 20260509120334 | 51 | 247 | 3.0 | 10.0 | 0.00 | 0.00 | 0.00 | 96 | 1003.2 |
| 20260509115833 | 50 | 237 | 5.0 | 10.0 | 0.00 | 0.00 | 0.00 | 96 | 1003.2 |
| 20260509115558 | 50 | 223 | 3.0 | 7.0 | 0.00 | 0.00 | 0.00 | 97 | 1003.5 |
| 20260509114834 | 50 | 226 | 2.0 | 7.0 | 0.00 | 0.00 | 0.00 | 97 | 1003.2 |
| 20260509114336 | 50 | 251 | 2.0 | 6.0 | 0.00 | 0.00 | 0.00 | 97 | 1003.2 |
| 20260509114049 | 50 | 226 | 1.0 | 6.0 | 0.00 | 0.00 | 0.00 | 96 | 1003.2 |
| 20260509113330 | 50 | 203 | 1.0 | 5.0 | 0.00 | 0.00 | 0.00 | 96 | 1002.9 |
| 20260509112830 | 49 | 225 | 3.0 | 5.0 | 0.00 | 0.00 | 0.00 | 96 | 1003.2 |
| 20260509112331 | 50 | 254 | 1.0 | 6.0 | 0.00 | 0.00 | 0.00 | 96 | 1002.9 |
| 20260509111830 | 50 | 231 | 2.0 | 6.0 | 0.00 | 0.00 | 0.00 | 96 | 1002.9 |
| 20260509111328 | 50 | 208 | 1.0 | 6.0 | 0.00 | 0.00 | 0.00 | 96 | 1002.9 |
| 20260509110828 | 50 | 201 | 0.0 | 6.0 | 0.00 | 0.00 | 0.00 | 96 | 1002.9 |
| 20260509110342 | 50 | 256 | 2.0 | 7.0 | 0.00 | 0.00 | 0.00 | 96 | 1002.9 |
| 20260509110048 | 50 | 213 | 2.0 | 7.0 | 0.00 | 0.00 | 0.00 | 96 | 1002.9 |
| 20260509105326 | 50 | 219 | 2.0 | 5.0 | 0.00 | 0.00 | 0.00 | 96 | 1002.5 |
| 20260509104825 | 50 | 204 | 4.0 | 6.0 | 0.00 | 0.00 | 0.00 | 95 | 1002.5 |
| 20260509104325 | 50 | 211 | 4.0 | 6.0 | 0.00 | 0.00 | 0.00 | 95 | 1002.5 |
| 20260509103825 | 50 | 226 | 3.0 | 7.0 | 0.00 | 0.00 | 0.00 | 95 | 1002.5 |
| 20260509103325 | 51 | 226 | 2.0 | 8.0 | 0.00 | 0.00 | 0.00 | 95 | 1002.5 |
| 20260509102825 | 51 | 205 | 3.0 | 8.0 | 0.00 | 0.00 | 0.00 | 95 | 1002.9 |
| 20260509102323 | 51 | 239 | 1.0 | 7.0 | 0.00 | 0.00 | 0.00 | 95 | 1002.9 |
| 20260509102043 | 51 | 248 | 5.0 | 7.0 | 0.00 | 0.00 | 0.00 | 95 | 1002.9 |
| 20260509101806 | 51 | 215 | 4.0 | 6.0 | 0.00 | 0.00 | 0.00 | 94 | 1002.9 |
| 20260509100822 | 51 | 244 | 3.0 | 6.0 | 0.00 | 0.00 | 0.00 | 94 | 1002.9 |
| 20260509100320 | 51 | 229 | 4.0 | 6.0 | 0.00 | 0.00 | 0.00 | 94 | 1002.9 |
| 20260509095820 | 51 | 227 | 3.0 | 5.0 | 0.00 | 0.00 | 0.00 | 94 | 1002.9 |
| 20260509095320 | 51 | 223 | 2.0 | 5.0 | 0.00 | 0.00 | 0.00 | 94 | 1002.5 |
| 20260509095047 | 51 | 212 | 4.0 | 7.0 | 0.00 | 0.00 | 0.00 | 94 | 1002.2 |
| 20260509094318 | 51 | 214 | 4.0 | 7.0 | 0.00 | 0.00 | 0.00 | 94 | 1002.5 |
| 20260509094044 | 51 | 223 | 2.0 | 5.0 | 0.00 | 0.00 | 0.00 | 94 | 1002.5 |
| 20260509093318 | 51 | 217 | 3.0 | 6.0 | 0.00 | 0.00 | 0.00 | 94 | 1002.5 |
| 20260509092818 | 51 | 224 | 2.0 | 6.0 | 0.00 | 0.00 | 0.00 | 94 | 1002.5 |
| 20260509092318 | 51 | 234 | 4.0 | 5.0 | 0.00 | 0.00 | 0.00 | 95 | 1002.5 |
| 20260509092043 | 51 | 223 | 4.0 | 6.0 | 0.00 | 0.00 | 0.00 | 95 | 1002.9 |
| 20260509091317 | 50 | 189 | 2.0 | 6.0 | 0.00 | 0.00 | 0.00 | 95 | 1002.9 |
| 20260509090815 | 50 | 213 | 3.0 | 7.0 | 0.00 | 0.00 | 0.00 | 95 | 1002.9 |
| 20260509090316 | 50 | 203 | 3.0 | 7.0 | 0.00 | 0.00 | 0.00 | 95 | 1003.2 |
| 20260509085814 | 50 | 256 | 2.0 | 6.0 | 0.00 | 0.00 | 0.00 | 94 | 1003.2 |
| 20260509085544 | 51 | 247 | 3.0 | 6.0 | 0.00 | 0.00 | 0.00 | 94 | 1003.2 |
| 20260509084813 | 51 | 236 | 2.0 | 9.0 | 0.00 | 0.00 | 0.00 | 94 | 1003.2 |
| 20260509084314 | 51 | 231 | 4.0 | 9.0 | 0.00 | 0.00 | 0.00 | 94 | 1003.2 |
| 20260509083812 | 51 | 207 | 3.0 | 6.0 | 0.00 | 0.00 | 0.00 | 94 | 1003.5 |
| 20260509083313 | 50 | 209 | 4.0 | 6.0 | 0.00 | 0.00 | 0.00 | 94 | 1003.2 |
| 20260509083037 | 50 | 237 | 2.0 | 5.0 | 0.00 | 0.00 | 0.00 | 94 | 1003.2 |
| 20260509082312 | 50 | 242 | 2.0 | 5.0 | 0.00 | 0.00 | 0.00 | 93 | 1003.2 |
| 20260509082031 | 50 | 252 | 2.0 | 4.0 | 0.00 | 0.00 | 0.00 | 93 | 1003.2 |
| 20260509081309 | 50 | 180 | 2.0 | 4.0 | 0.00 | 0.00 | 0.00 | 93 | 1003.2 |
| 20260509080810 | 50 | 215 | 0.0 | 4.0 | 0.00 | 0.00 | 0.00 | 93 | 1003.2 |
| 20260509080309 | 50 | 194 | 4.0 | 4.0 | 0.00 | 0.00 | 0.00 | 93 | 1003.2 |
| 20260509075807 | 50 | 149 | 1.0 | 3.0 | 0.00 | 0.00 | 0.00 | 93 | 1003.2 |
| 20260509075533 | 50 | 180 | 3.0 | 3.0 | 0.00 | 0.00 | 0.00 | 93 | 1003.2 |
| 20260509075026 | 50 | 222 | 2.0 | 4.0 | 0.00 | 0.00 | 0.00 | 92 | 1003.5 |
| 20260509074307 | 50 | 192 | 0.0 | 4.0 | 0.00 | 0.00 | 0.00 | 92 | 1003.2 |
| 20260509073807 | 50 | 165 | 2.0 | 4.0 | 0.00 | 0.00 | 0.00 | 92 | 1003.2 |
| 20260509073307 | 50 | 161 | 3.0 | 4.0 | 0.00 | 0.00 | 0.00 | 92 | 1003.5 |
| 20260509072804 | 50 | 184 | 1.0 | 4.0 | 0.00 | 0.00 | 0.00 | 92 | 1003.5 |
| 20260509072529 | 51 | 223 | 2.0 | 3.0 | 0.00 | 0.00 | 0.00 | 91 | 1003.2 |
| 20260509071803 | 51 | 196 | 2.0 | 3.0 | 0.00 | 0.00 | 0.00 | 91 | 1003.5 |
| 20260509071304 | 51 | 170 | 2.0 | 3.0 | 0.00 | 0.00 | 0.00 | 91 | 1003.5 |
| 20260509070807 | 51 | 197 | 2.0 | 6.0 | 0.00 | 0.00 | 0.00 | 91 | 1003.5 |
| 20260509070303 | 51 | 211 | 2.0 | 6.0 | 0.00 | 0.00 | 0.00 | 91 | 1003.9 |
| 20260509065804 | 51 | 241 | 0.0 | 6.0 | 0.00 | 0.00 | 0.00 | 90 | 1003.5 |
| 20260509065305 | 51 | 165 | 2.0 | 6.0 | 0.00 | 0.00 | 0.00 | 90 | 1003.9 |
| 20260509064801 | 51 | 205 | 3.0 | 5.0 | 0.00 | 0.00 | 0.00 | 90 | 1003.9 |
| 20260509064301 | 52 | 208 | 1.0 | 5.0 | 0.00 | 0.00 | 0.00 | 90 | 1004.2 |
| 20260509063803 | 52 | 213 | 2.0 | 4.0 | 0.00 | 0.00 | 0.00 | 90 | 1004.2 |
| 20260509063300 | 52 | 269 | 0.0 | 5.0 | 0.00 | 0.00 | 0.00 | 90 | 1004.2 |
| 20260509063016 | 52 | 217 | 1.0 | 5.0 | 0.00 | 0.00 | 0.00 | 90 | 1004.6 |
| 20260509062257 | 52 | 239 | 3.0 | 9.0 | 0.00 | 0.00 | 0.00 | 89 | 1004.6 |
| 20260509061758 | 52 | 228 | 3.0 | 9.0 | 0.00 | 0.00 | 0.00 | 89 | 1004.6 |
| 20260509061258 | 53 | 209 | 2.0 | 5.0 | 0.00 | 0.00 | 0.00 | 89 | 1004.2 |
| 20260509060756 | 53 | 228 | 2.0 | 5.0 | 0.00 | 0.00 | 0.00 | 89 | 1004.2 |
| 20260509060258 | 53 | 221 | 3.0 | 4.0 | 0.00 | 0.00 | 0.00 | 89 | 1004.6 |
| 20260509055755 | 53 | 178 | 2.0 | 8.0 | 0.00 | 0.00 | 0.00 | 89 | 1004.6 |
| 20260509055522 | 53 | 211 | 2.0 | 8.0 | 0.00 | 0.00 | 0.00 | 88 | 1004.6 |
| 20260509054754 | 53 | 212 | 3.0 | 5.0 | 0.00 | 0.00 | 0.00 | 88 | 1004.6 |
| 20260509054255 | 53 | 213 | 2.0 | 6.0 | 0.00 | 0.00 | 0.00 | 88 | 1004.6 |
| 20260509053753 | 53 | 229 | 5.0 | 6.0 | 0.00 | 0.00 | 0.00 | 87 | 1004.9 |
| 20260509053253 | 53 | 183 | 2.0 | 6.0 | 0.00 | 0.00 | 0.00 | 87 | 1004.9 |
| 20260509052752 | 54 | 186 | 2.0 | 6.0 | 0.00 | 0.00 | 0.00 | 87 | 1004.6 |
| 20260509052252 | 54 | 210 | 2.0 | 5.0 | 0.00 | 0.00 | 0.00 | 87 | 1004.6 |
| 20260509051753 | 54 | 188 | 2.0 | 5.0 | 0.00 | 0.00 | 0.00 | 86 | 1004.6 |
| 20260509051255 | 54 | 223 | 3.0 | 6.0 | 0.00 | 0.00 | 0.00 | 86 | 1004.6 |
| 20260509050749 | 54 | 190 | 2.0 | 6.0 | 0.00 | 0.00 | 0.00 | 85 | 1004.6 |
| 20260509050251 | 54 | 195 | 3.0 | 6.0 | 0.00 | 0.00 | 0.00 | 85 | 1004.9 |
| 20260509045752 | 54 | 232 | 6.0 | 6.0 | 0.00 | 0.00 | 0.00 | 84 | 1004.6 |
| 20260509045249 | 54 | 192 | 2.0 | 6.0 | 0.00 | 0.00 | 0.00 | 84 | 1004.6 |
| 20260509045017 | 55 | 220 | 3.0 | 6.0 | 0.00 | 0.00 | 0.00 | 83 | 1004.6 |
| 20260509044251 | 55 | 206 | 4.0 | 5.0 | 0.00 | 0.00 | 0.00 | 82 | 1004.6 |
| 20260509043747 | 55 | 220 | 4.0 | 6.0 | 0.00 | 0.00 | 0.00 | 82 | 1004.6 |
| 20260509043247 | 55 | 178 | 0.0 | 6.0 | 0.00 | 0.00 | 0.00 | 81 | 1004.6 |
| 20260509043012 | 55 | 185 | 2.0 | 5.0 | 0.00 | 0.00 | 0.00 | 80 | 1004.6 |
| 20260509042245 | 55 | 183 | 3.0 | 5.0 | 0.00 | 0.00 | 0.00 | 79 | 1004.6 |
| 20260509041747 | 55 | 200 | 2.0 | 5.0 | 0.00 | 0.00 | 0.00 | 79 | 1004.6 |
| 20260509041602 | 55 | 194 | 2.0 | 7.0 | 0.00 | 0.00 | 0.00 | 78 | 1004.6 |
| 20260509041459 | 56 | 210 | 3.0 | 7.0 | 0.00 | 0.00 | 0.00 | 78 | 1004.6 |
| 20260509040245 | 56 | 196 | 3.0 | 6.0 | 0.00 | 0.00 | 0.00 | 77 | 1004.6 |
| 20260509035743 | 56 | 202 | 2.0 | 6.0 | 0.00 | 0.00 | 0.00 | 76 | 1004.6 |
| 20260509035242 | 56 | 207 | 3.0 | 5.0 | 0.00 | 0.00 | 0.00 | 76 | 1004.9 |
| 20260509034743 | 56 | 225 | 2.0 | 6.0 | 0.00 | 0.00 | 0.00 | 75 | 1004.9 |
| 20260509034501 | 56 | 212 | 5.0 | 6.0 | 0.00 | 0.00 | 0.00 | 75 | 1004.9 |
| 20260509034354 | 56 | 232 | 4.0 | 6.0 | 0.00 | 0.00 | 0.00 | 75 | 1004.9 |
| 20260509033501 | 57 | 193 | 2.0 | 7.0 | 0.00 | 0.00 | 0.00 | 74 | 1004.9 |
| 20260509032741 | 57 | 221 | 2.0 | 7.0 | 0.00 | 0.00 | 0.00 | 74 | 1004.9 |
| 20260509032239 | 57 | 231 | 2.0 | 7.0 | 0.00 | 0.00 | 0.00 | 73 | 1004.9 |
| 20260509031741 | 57 | 187 | 2.0 | 5.0 | 0.00 | 0.00 | 0.00 | 72 | 1004.9 |
| 20260509031238 | 57 | 227 | 4.0 | 5.0 | 0.00 | 0.00 | 0.00 | 71 | 1004.9 |
| 20260509030739 | 58 | 217 | 2.0 | 8.0 | 0.00 | 0.00 | 0.00 | 70 | 1004.9 |
| 20260509030238 | 58 | 199 | 2.0 | 8.0 | 0.00 | 0.00 | 0.00 | 69 | 1004.9 |
| 20260509025737 | 58 | 225 | 4.0 | 6.0 | 0.00 | 0.00 | 0.00 | 68 | 1004.9 |
| 20260509025237 | 58 | 193 | 3.0 | 6.0 | 0.00 | 0.00 | 0.00 | 66 | 1004.9 |
| 20260509024736 | 58 | 208 | 2.0 | 5.0 | 0.00 | 0.00 | 0.00 | 64 | 1004.9 |
| 20260509024237 | 58 | 189 | 2.0 | 4.0 | 0.00 | 0.00 | 0.00 | 63 | 1004.9 |
| 20260509023735 | 58 | 207 | 2.0 | 4.0 | 0.00 | 0.00 | 0.00 | 62 | 1004.9 |
| 20260509023234 | 58 | 190 | 2.0 | 4.0 | 0.00 | 0.00 | 0.00 | 62 | 1004.9 |
| 20260509022736 | 58 | 211 | 2.0 | 4.0 | 0.00 | 0.00 | 0.00 | 62 | 1004.9 |
| 20260509022234 | 58 | 202 | 1.0 | 3.0 | 0.00 | 0.00 | 0.00 | 62 | 1004.9 |
| 20260509021734 | 58 | 224 | 3.0 | 3.0 | 0.00 | 0.00 | 0.00 | 62 | 1004.9 |
| 20260509021232 | 58 | 191 | 2.0 | 3.0 | 0.00 | 0.00 | 0.00 | 62 | 1004.9 |
| 20260509020732 | 58 | 165 | 0.0 | 2.0 | 0.00 | 0.00 | 0.00 | 62 | 1004.9 |
| 20260509020451 | 58 | 201 | 2.0 | 2.0 | 0.00 | 0.00 | 0.00 | 63 | 1004.6 |
| 20260509015732 | 58 | 180 | 0.0 | 2.0 | 0.00 | 0.00 | 0.00 | 62 | 1004.6 |
| 20260509015450 | 59 | 186 | 1.0 | 2.0 | 0.00 | 0.00 | 0.00 | 61 | 1004.6 |
| 20260509014731 | 59 | 195 | 1.0 | 2.0 | 0.00 | 0.00 | 0.00 | 62 | 1004.9 |
| 20260509014716 | 59 | 162 | 1.0 | 2.0 | 0.00 | 0.00 | 0.00 | 62 | 1004.9 |
| 20260509014342 | 59 | 224 | 1.0 | 2.0 | 0.00 | 0.00 | 0.00 | 61 | 1004.6 |
| 20260509013449 | 59 | 179 | 1.0 | 2.0 | 0.00 | 0.00 | 0.00 | 60 | 1004.6 |
| 20260509012729 | 60 | 202 | 0.0 | 2.0 | 0.00 | 0.00 | 0.00 | 60 | 1004.6 |
| 20260509012228 | 60 | 89 | 0.0 | 2.0 | 0.00 | 0.00 | 0.00 | 59 | 1004.6 |
| 20260509011726 | 61 | 173 | 2.0 | 3.0 | 0.00 | 0.00 | 0.00 | 59 | 1004.9 |
| 20260509011228 | 61 | 218 | 2.0 | 3.0 | 0.00 | 0.00 | 0.00 | 58 | 1004.6 |
| 20260509010727 | 61 | 207 | 2.0 | 3.0 | 0.00 | 0.00 | 0.00 | 58 | 1004.6 |
| 20260509010225 | 62 | 206 | 2.0 | 4.0 | 0.00 | 0.00 | 0.00 | 58 | 1004.6 |
| 20260509005725 | 62 | 172 | 2.0 | 5.0 | 0.00 | 0.00 | 0.00 | 57 | 1004.6 |
| 20260509005224 | 62 | 215 | 3.0 | 5.0 | 0.00 | 0.00 | 0.00 | 56 | 1004.6 |
| 20260509004723 | 62 | 187 | 2.0 | 4.0 | 0.00 | 0.00 | 0.00 | 56 | 1004.6 |
| 20260509004222 | 63 | 221 | 3.0 | 5.0 | 0.00 | 0.00 | 0.00 | 56 | 1004.6 |
| 20260509003724 | 63 | 245 | 4.0 | 5.0 | 0.00 | 0.00 | 0.00 | 56 | 1004.9 |
| 20260509003220 | 63 | 195 | 1.0 | 5.0 | 0.00 | 0.00 | 0.00 | 55 | 1004.6 |
| 20260509002722 | 64 | 245 | 3.0 | 5.0 | 0.00 | 0.00 | 0.00 | 54 | 1004.6 |
| 20260509002221 | 64 | 256 | 5.0 | 9.0 | 0.00 | 0.00 | 0.00 | 53 | 1004.6 |
| 20260509001721 | 64 | 223 | 2.0 | 9.0 | 0.00 | 0.00 | 0.00 | 52 | 1004.9 |
| 20260509000718 | 64 | 198 | 3.0 | 6.0 | 0.00 | 0.00 | 0.00 | 51 | 1004.9 |
| 20260509000219 | 64 | 200 | 0.0 | 4.0 | 0.00 | 0.00 | 0.00 | 49 | 1004.9 |
| 20260508235719 | 64 | 173 | 1.0 | 3.0 | 0.00 | 0.00 | 0.00 | 50 | 1004.9 |
| 20260508235217 | 64 | 190 | 0.0 | 3.0 | 0.00 | 0.00 | 0.00 | 51 | 1004.9 |
| 20260508234717 | 64 | 231 | 0.0 | 3.0 | 0.00 | 0.00 | 0.00 | 50 | 1004.9 |
| 20260508234217 | 64 | 183 | 2.0 | 2.0 | 0.00 | 0.00 | 0.00 | 50 | 1004.9 |
| 20260508233715 | 65 | 205 | 0.0 | 4.0 | 0.00 | 0.00 | 0.00 | 49 | 1004.9 |
| 20260508233215 | 65 | 137 | 2.0 | 4.0 | 0.00 | 0.00 | 0.00 | 46 | 1005.2 |
| 20260508232935 | 65 | 218 | 0.0 | 3.0 | 0.00 | 0.00 | 0.00 | 45 | 1005.2 |
| 20260508232218 | 65 | 237 | 2.0 | 5.0 | 0.00 | 0.00 | 0.00 | 44 | 1005.2 |
| 20260508231713 | 65 | 168 | 2.0 | 5.0 | 0.00 | 0.00 | 0.00 | 44 | 1004.9 |
| 20260508231216 | 65 | 148 | 2.0 | 3.0 | 0.00 | 0.00 | 0.00 | 45 | 1005.2 |
| 20260508230714 | 65 | 180 | 1.0 | 3.0 | 0.00 | 0.00 | 0.00 | 47 | 1004.9 |
| 20260508230420 | 65 | 137 | 4.0 | 4.0 | 0.00 | 0.00 | 0.00 | 44 | 1005.2 |
| 20260508230311 | 65 | 150 | 0.0 | 4.0 | 0.00 | 0.00 | 0.00 | 45 | 1004.9 |
| 20260508225212 | 64 | 183 | 1.0 | 3.0 | 0.00 | 0.00 | 0.00 | 44 | 1005.2 |
| 20260508224713 | 64 | 201 | 1.0 | 3.0 | 0.00 | 0.00 | 0.00 | 47 | 1004.9 |
| 20260508224209 | 64 | 196 | 2.0 | 3.0 | 0.00 | 0.00 | 0.00 | 46 | 1005.2 |
| 20260508223710 | 64 | 208 | 2.0 | 3.0 | 0.00 | 0.00 | 0.00 | 48 | 1005.2 |
| 20260508223208 | 65 | 205 | 0.0 | 3.0 | 0.00 | 0.00 | 0.00 | 46 | 1005.2 |
| 20260508222710 | 65 | 259 | 2.0 | 4.0 | 0.00 | 0.00 | 0.00 | 46 | 1005.2 |
| 20260508222429 | 65 | 197 | 2.0 | 4.0 | 0.00 | 0.00 | 0.00 | 45 | 1004.9 |
| 20260508221707 | 65 | 213 | 2.0 | 4.0 | 0.00 | 0.00 | 0.00 | 47 | 1005.2 |
| 20260508221207 | 65 | 158 | 3.0 | 4.0 | 0.00 | 0.00 | 0.00 | 46 | 1005.2 |
| 20260508220707 | 65 | 210 | 1.0 | 4.0 | 0.00 | 0.00 | 0.00 | 47 | 1005.2 |
| 20260508220218 | 65 | 164 | 1.0 | 6.0 | 0.00 | 0.00 | 0.00 | 45 | 1005.2 |
| 20260508215705 | 65 | 152 | 4.0 | 6.0 | 0.00 | 0.00 | 0.00 | 46 | 1005.2 |
| 20260508215205 | 64 | 216 | 0.0 | 4.0 | 0.00 | 0.00 | 0.00 | 45 | 1005.2 |
| 20260508214705 | 64 | 170 | 2.0 | 3.0 | 0.00 | 0.00 | 0.00 | 46 | 1005.2 |
| 20260508214204 | 64 | 214 | 2.0 | 4.0 | 0.00 | 0.00 | 0.00 | 46 | 1005.2 |
| 20260508213703 | 64 | 218 | 2.0 | 4.0 | 0.00 | 0.00 | 0.00 | 46 | 1005.6 |
| 20260508213205 | 64 | 166 | 1.0 | 4.0 | 0.00 | 0.00 | 0.00 | 48 | 1005.2 |
| 20260508212703 | 64 | 215 | 1.0 | 4.0 | 0.00 | 0.01 | 0.00 | 46 | 1005.2 |
| 20260508212203 | 64 | 237 | 3.0 | 4.0 | 0.00 | 0.01 | 0.00 | 49 | 1005.6 |
| 20260508211702 | 64 | 157 | 3.0 | 4.0 | 0.00 | 0.01 | 0.00 | 48 | 1005.6 |
| 20260508211203 | 64 | 160 | 3.0 | 4.0 | 0.00 | 0.02 | 0.00 | 51 | 1006.0 |
| 20260508210659 | 64 | 299 | 0.0 | 5.0 | 0.00 | 0.02 | 0.00 | 51 | 1005.6 |
| 20260508210203 | 64 | 106 | 2.0 | 5.0 | 0.00 | 0.02 | 0.00 | 51 | 1005.6 |
| 20260508205700 | 64 | 119 | 4.0 | 4.0 | 0.00 | 0.02 | 0.00 | 51 | 1005.6 |
| 20260508205158 | 64 | 126 | 0.0 | 4.0 | 0.00 | 0.02 | 0.00 | 52 | 1005.6 |
| 20260508204658 | 64 | 180 | 2.0 | 4.0 | 0.00 | 0.02 | 0.00 | 50 | 1006.0 |
| 20260508204159 | 64 | 190 | 1.0 | 4.0 | 0.00 | 0.02 | 0.00 | 49 | 1006.0 |
| 20260508203659 | 64 | 157 | 2.0 | 4.0 | 0.00 | 0.02 | 0.00 | 52 | 1006.0 |
| 20260508203424 | 64 | 145 | 2.0 | 4.0 | 0.00 | 0.02 | 0.00 | 52 | 1006.3 |
| 20260508202923 | 64 | 182 | 3.0 | 3.0 | 0.00 | 0.02 | 0.00 | 49 | 1006.0 |
| 20260508202156 | 64 | 117 | 1.0 | 4.0 | 0.00 | 0.02 | 0.00 | 50 | 1006.3 |
| 20260508201655 | 64 | 113 | 1.0 | 9.0 | 0.00 | 0.02 | 0.00 | 49 | 1006.7 |
| 20260508201155 | 64 | 166 | 4.0 | 9.0 | 0.00 | 0.02 | 0.00 | 50 | 1006.3 |
| 20260508200922 | 64 | 166 | 2.0 | 8.0 | 0.00 | 0.02 | 0.00 | 52 | 1006.3 |
| 20260508200353 | 64 | 155 | 6.0 | 10.0 | 0.00 | 0.02 | 0.00 | 52 | 1006.7 |
| 20260508200244 | 63 | 180 | 2.0 | 10.0 | 0.00 | 0.02 | 0.00 | 50 | 1006.7 |
| 20260508195154 | 65 | 209 | 3.0 | 9.0 | 0.00 | 0.02 | 0.00 | 51 | 1006.7 |
| 20260508194652 | 65 | 153 | 7.0 | 9.0 | 0.00 | 0.02 | 0.00 | 49 | 1006.7 |
| 20260508194415 | 66 | 195 | 3.0 | 7.0 | 0.00 | 0.02 | 0.00 | 50 | 1007.0 |
| 20260508193652 | 65 | 194 | 3.0 | 7.0 | 0.00 | 0.02 | 0.00 | 48 | 1006.7 |
| 20260508193406 | 64 | 182 | 2.0 | 7.0 | 0.00 | 0.02 | 0.00 | 50 | 1006.7 |
| 20260508192910 | 64 | 232 | 1.0 | 7.0 | 0.00 | 0.02 | 0.00 | 51 | 1007.0 |
| 20260508192151 | 64 | 140 | 3.0 | 5.0 | 0.00 | 0.02 | 0.00 | 48 | 1007.0 |
| 20260508191650 | 64 | 297 | 2.0 | 4.0 | 0.00 | 0.02 | 0.00 | 46 | 1007.0 |
| 20260508191150 | 64 | 227 | 0.0 | 3.0 | 0.00 | 0.02 | 0.00 | 45 | 1007.4 |
| 20260508191139 | 64 | 3 | 2.0 | 4.0 | 0.00 | 0.02 | 0.00 | 44 | 1007.0 |
| 20260508190147 | 65 | 309 | 2.0 | 6.0 | 0.00 | 0.02 | 0.00 | 46 | 1007.4 |
| 20260508185647 | 65 | 262 | 2.0 | 9.0 | 0.00 | 0.02 | 0.00 | 47 | 1007.4 |
| 20260508185146 | 65 | 309 | 5.0 | 9.0 | 0.00 | 0.02 | 0.00 | 47 | 1007.4 |
| 20260508184646 | 65 | 231 | 0.0 | 6.0 | 0.00 | 0.02 | 0.00 | 45 | 1007.0 |
| 20260508184145 | 65 | 153 | 4.0 | 6.0 | 0.00 | 0.02 | 0.00 | 49 | 1007.4 |
| 20260508183647 | 65 | 298 | 3.0 | 7.0 | 0.00 | 0.02 | 0.00 | 42 | 1007.4 |
| 20260508183145 | 65 | 228 | 4.0 | 8.0 | 0.00 | 0.02 | 0.00 | 47 | 1007.4 |
| 20260508182645 | 65 | 175 | 4.0 | 9.0 | 0.00 | 0.02 | 0.00 | 53 | 1007.7 |
| 20260508182147 | 64 | 172 | 5.0 | 9.0 | 0.00 | 0.02 | 0.00 | 51 | 1007.7 |
| 20260508181642 | 64 | 99 | 4.0 | 6.0 | 0.00 | 0.02 | 0.00 | 52 | 1007.7 |
| 20260508181142 | 64 | 212 | 1.0 | 6.0 | 0.00 | 0.02 | 0.00 | 53 | 1008.0 |
| 20260508180640 | 63 | 170 | 4.0 | 6.0 | 0.00 | 0.02 | 0.00 | 52 | 1007.7 |
| 20260508180141 | 64 | 192 | 4.0 | 11.0 | 0.00 | 0.02 | 0.00 | 51 | 1008.0 |
| 20260508175907 | 63 | 100 | 2.0 | 11.0 | 0.00 | 0.02 | 0.00 | 50 | 1008.0 |
| 20260508175140 | 63 | 231 | 4.0 | 9.0 | 0.00 | 0.02 | 0.00 | 52 | 1008.0 |
| 20260508174858 | 63 | 247 | 3.0 | 9.0 | 0.00 | 0.02 | 0.00 | 46 | 1008.0 |
| 20260508174138 | 63 | 202 | 3.0 | 9.0 | 0.00 | 0.02 | 0.00 | 49 | 1008.4 |
| 20260508173638 | 63 | 92 | 3.0 | 8.0 | 0.00 | 0.02 | 0.00 | 51 | 1008.4 |
| 20260508173405 | 62 | 134 | 4.0 | 9.0 | 0.00 | 0.02 | 0.00 | 54 | 1008.0 |
| 20260508172639 | 62 | 46 | 1.0 | 11.0 | 0.00 | 0.02 | 0.00 | 51 | 1008.4 |
| 20260508172139 | 62 | 162 | 6.0 | 9.0 | 0.00 | 0.02 | 0.00 | 50 | 1008.7 |
| 20260508171637 | 62 | 163 | 5.0 | 10.0 | 0.00 | 0.02 | 0.00 | 51 | 1008.7 |
| 20260508171135 | 62 | 116 | 8.0 | 10.0 | 0.00 | 0.02 | 0.00 | 48 | 1008.7 |
| 20260508170636 | 62 | 183 | 4.0 | 8.0 | 0.00 | 0.02 | 0.00 | 47 | 1008.7 |
| 20260508170134 | 62 | 109 | 3.0 | 9.0 | 0.00 | 0.02 | 0.00 | 45 | 1008.7 |
| 20260508165633 | 62 | 129 | 9.0 | 9.0 | 0.00 | 0.02 | 0.00 | 49 | 1008.7 |
| 20260508165133 | 62 | 193 | 1.0 | 8.0 | 0.00 | 0.02 | 0.00 | 43 | 1008.7 |
| 20260508164633 | 62 | 118 | 4.0 | 7.0 | 0.00 | 0.02 | 0.00 | 47 | 1009.1 |
| 20260508164133 | 62 | 154 | 4.0 | 8.0 | 0.00 | 0.02 | 0.00 | 47 | 1009.1 |
| 20260508163633 | 62 | 178 | 4.0 | 8.0 | 0.00 | 0.02 | 0.00 | 43 | 1009.4 |
| 20260508163358 | 61 | 238 | 0.0 | 8.0 | 0.00 | 0.02 | 0.00 | 47 | 1009.4 |
| 20260508162631 | 61 | 250 | 2.0 | 8.0 | 0.00 | 0.02 | 0.00 | 42 | 1009.4 |
| 20260508162133 | 61 | 177 | 4.0 | 9.0 | 0.00 | 0.02 | 0.00 | 43 | 1009.1 |
| 20260508161629 | 61 | 166 | 3.0 | 9.0 | 0.00 | 0.02 | 0.00 | 45 | 1009.4 |
| 20260508161130 | 60 | 134 | 2.0 | 9.0 | 0.00 | 0.02 | 0.00 | 46 | 1009.4 |
| 20260508160628 | 60 | 112 | 5.0 | 8.0 | 0.00 | 0.02 | 0.00 | 46 | 1009.8 |
| 20260508160128 | 60 | 145 | 4.0 | 10.0 | 0.00 | 0.02 | 0.00 | 43 | 1009.1 |
| 20260508155627 | 60 | 43 | 3.0 | 10.0 | 0.00 | 0.02 | 0.00 | 45 | 1009.4 |
| 20260508155352 | 60 | 213 | 4.0 | 9.0 | 0.00 | 0.02 | 0.00 | 48 | 1009.4 |
| 20260508154626 | 59 | 98 | 5.0 | 11.0 | 0.00 | 0.02 | 0.00 | 48 | 1009.8 |
| 20260508154126 | 60 | 127 | 5.0 | 11.0 | 0.00 | 0.02 | 0.00 | 48 | 1009.8 |
| 20260508153627 | 60 | 179 | 3.0 | 9.0 | 0.00 | 0.02 | 0.00 | 50 | 1009.8 |
| 20260508153125 | 59 | 81 | 0.0 | 9.0 | 0.00 | 0.02 | 0.00 | 49 | 1009.8 |